Flag for Russia Past Weather in Petropavlovsk-Kamchatsky, Russia — Yesterday and Last 2 Weeks

Now
73 °F

Passing clouds.


Feels Like: 76 °F
Forecast: 53 / 66 °F
Wind: 3 mph from Southwest

Location: Petropavlovsk-Kamchatskij

Current Time: Jul 23, 2017 at 12:58:17 pm

Latest Report: Jul 23, 2017 at 12:00 pm


Visibility: N/A

Pressure: 29.74 "Hg

Humidity: 65%

Dew Point: 61 °F

Location of Petropavlovsk-KamchatskyLocation

Past Weather in Petropavlovsk-Kamchatsky — Graph

°F

Petropavlovsk-Kamchatsky Temperature Yesterday

Maximum temperature yesterday: 59 °F (at 4:00 pm)
Minimum temperature yesterday: 52 °F (at 5:00 am)
Average temperature yesterday: 56 °F

High & Low Weather Summary for the Past Weeks

 TemperatureHumidityPressure
High72 °F (Jul 23, 11:30 am)100% (Jul 9, 6:00 am)30.09 "Hg (Jul 9, 6:00 am)
Low46 °F (Jul 13, 5:00 am)49% (Jul 16, 5:30 pm)29.39 "Hg (Jul 16, 4:30 pm)
Average58 °F84%29.70 "Hg
* Reported Jul 8 11:00 am — Jul 23 11:30 am, Petropavlovsk-Kamchatsky. Weather by CustomWeather, © 2017

Note: Actual official high and low records may vary slightly from our data, if they occured in-between our weather recording intervals... More about our weather records

Advertising

Petropavlovsk-Kamchatsky Weather History for the Previous 24 Hours

Scroll right to see more
 ConditionsComfort  
Time TempWeatherWind HumidityBarometerVisibility
11:30 am
Sun, Jul 23
72 °FPassing clouds.3 mph69%29.74 "HgN/A
11:00 am70 °FPassing clouds.6 mph78%29.74 "HgN/A
10:30 am70 °FPassing clouds.6 mph73%29.74 "HgN/A
10:00 am68 °FPassing clouds.8 mph78%29.74 "HgN/A
9:30 am66 °FPassing clouds.8 mph83%29.74 "HgN/A
8:30 am63 °FPassing clouds.10 mph94%29.74 "HgN/A
8:00 am61 °FBroken clouds.8 mph94%29.74 "HgN/A
7:30 am59 °FBroken clouds.6 mph100%29.74 "HgN/A
7:00 am59 °FPartly sunny.6 mph100%29.71 "HgN/A
6:00 am57 °FPartly sunny.1 mph100%29.71 "HgN/A
5:00 am59 °FSprinkles. Passing clouds.3 mph94%29.71 "HgN/A
4:00 am57 °FSprinkles. Passing clouds.6 mph100%29.71 "Hg5 mi
3:00 am57 °FPassing clouds.1 mph100%29.71 "Hg5 mi
2:00 am57 °FFog.1 mph100%29.71 "Hg2 mi
1:00 am57 °FSprinkles. Partly cloudy.1 mph100%29.71 "Hg5 mi
12:00 am57 °FSprinkles. Partly cloudy.3 mph100%29.71 "Hg4 mi
11:00 pm
Sat, Jul 22
57 °FSprinkles. Fog.3 mph100%29.71 "Hg3 mi
10:00 pm57 °FSprinkles. Fog.3 mph100%29.74 "Hg2 mi
9:00 pm57 °FSprinkles. Partly sunny.1 mph100%29.74 "Hg4 mi
8:00 pm59 °FSprinkles. Partly sunny.3 mph94%29.71 "Hg6 mi
7:30 pm59 °FSprinkles. Broken clouds.3 mph88%29.74 "HgN/A
7:00 pm59 °FBroken clouds.6 mph88%29.74 "HgN/A
6:30 pm59 °FSprinkles. Broken clouds.3 mph88%29.74 "HgN/A
6:00 pm59 °FBroken clouds.3 mph88%29.74 "HgN/A
5:30 pm59 °FBroken clouds.3 mph88%29.74 "HgN/A
4:30 pm59 °FBroken clouds.3 mph88%29.74 "HgN/A
4:00 pm59 °FBroken clouds.6 mph88%29.74 "HgN/A
3:30 pm57 °FPartly sunny.8 mph88%29.74 "HgN/A
3:00 pm57 °FPartly sunny.6 mph88%29.77 "HgN/A
2:30 pm57 °FPartly sunny.8 mph94%29.77 "HgN/A
2:00 pm55 °FMostly cloudy.6 mph94%29.77 "HgN/A
1:30 pm54 °FMostly cloudy.8 mph100%29.77 "HgN/A
1:00 pm55 °FMostly cloudy.8 mph94%29.80 "HgN/A
12:30 pm55 °FMore clouds than sun.10 mph94%29.80 "HgN/A
12:00 pm55 °FSprinkles. More clouds than sun.8 mph94%29.80 "HgN/A
Weather by CustomWeather, © 2017

See weather overviewHow to use our weather pages